Weather History for KSJT - March, 2014

Change the Weather History Date:

Wednesday, March 5, 2014

  Actual Average Record
Temperature  
Mean Temperature 58 °F 55 °F  
Max Temperature 72 °F 68 °F 92 °F (2009)
Min Temperature 43 °F 42 °F 18 °F (1915)
Degree Days  
Heating Degree Days 7 11  
Month to date heating degree days 80 56  
Since 1 July heating degree days 2200 2017  
Cooling Degree Days 0 1  
Month to date cooling degree days 1 2  
Year to date cooling degree days 4 7  
Growing Degree Days 8 (Base 50)    
Moisture  
Dew Point 33 °F    
Average Humidity 45    
Maximum Humidity 65    
Minimum Humidity 25    
Precipitation  
Precipitation 0.00 in 0.05 in 1.68 in (2005)
Month to date precipitation 0.02 0.25  
Year to date precipitation 0.08 2.53  
Snow  
Snow 0.00 in 0.00 in 0.80 in (1989)
Month to date snowfall T 0.0  
Since 1 July snowfall 1.6 2.1  
Snow Depth 0.00 in    
Sea Level Pressure  
Sea Level Pressure 29.98 in    
Wind  
Wind Speed 11 mph (West)    
Max Wind Speed 25 mph    
Max Gust Speed 32 mph    
Visibility 10 miles    
Events      
T = Trace of Precipitation, MM = Missing Value Source: NWS Daily Summary

Daily Weather History Graph

Daily Weather History Graph

Search for Another Location

Airport or City:

Trip Planner

Search our weather history database for the weather conditions in past years. The results will help you decide how hot, cold, wet, or windy it might be!

Date:

Astronomy

Mar. 05, 2014 Rise Set
Actual Time 7:04 AM CST 6:43 PM CST
Civil Twilight 6:39 AM CST 7:07 PM CST
Nautical Twilight 6:11 AM CST 7:35 PM CST
Astronomical Twilight 5:43 AM CST 8:03 PM CST
Moon 9:50 AM CST (3/5) 11:32 PM CST (3/5)
Length of Visible Light 12h 27m
Length of Day
11h 39m
Waxing Crescent, 23% of the Moon is Illuminated
Mar 5
Waxing Crescent
Mar 8
First Quarter
Mar 16
Full
Mar 23
Last Quarter
Mar 30
New

Hourly Weather History & Observations

Time (CST) Temp. Windchill Dew Point Humidity Pressure Visibility Wind Dir Wind Speed Gust Speed Precip Events Conditions
12:51 AM 46.9 °F - 30.9 °F 54% 29.93 in 10.0 mi SSW 8.1 mph - N/A   Clear
1:51 AM 46.0 °F 42.5 °F 30.9 °F 56% 29.92 in 10.0 mi South 6.9 mph - N/A   Clear
2:51 AM 46.0 °F 41.0 °F 32.0 °F 58% 29.89 in 10.0 mi South 10.4 mph - N/A   Clear
3:51 AM 46.0 °F 41.9 °F 32.0 °F 58% 29.87 in 10.0 mi South 8.1 mph - N/A   Clear
4:51 AM 45.0 °F 40.6 °F 32.0 °F 60% 29.87 in 10.0 mi South 8.1 mph - N/A   Clear
5:51 AM 44.1 °F 40.1 °F 32.0 °F 63% 29.90 in 10.0 mi SSW 6.9 mph - N/A   Clear
6:51 AM 45.0 °F 41.2 °F 33.1 °F 63% 29.90 in 10.0 mi SSW 6.9 mph - N/A   Clear
7:51 AM 44.1 °F 39.5 °F 33.1 °F 65% 29.93 in 10.0 mi SSW 8.1 mph - N/A   Clear
8:51 AM 48.0 °F - 35.1 °F 61% 29.94 in 10.0 mi SSW 12.7 mph - N/A   Clear
9:51 AM 54.0 °F - 36.0 °F 51% 29.94 in 10.0 mi SSW 15.0 mph - N/A   Partly Cloudy
10:51 AM 57.0 °F - 37.0 °F 47% 29.93 in 10.0 mi SW 13.8 mph - N/A   Clear
11:51 AM 64.0 °F - 35.1 °F 34% 29.91 in 10.0 mi WSW 9.2 mph - N/A   Clear
12:51 PM 68.0 °F - 35.1 °F 30% 29.90 in 10.0 mi Variable 4.6 mph - N/A   Clear
1:51 PM 68.0 °F - 34.0 °F 28% 29.88 in 10.0 mi North 12.7 mph 20.7 mph N/A   Scattered Clouds
2:51 PM 71.1 °F - 34.0 °F 26% 29.89 in 10.0 mi NE 9.2 mph 20.7 mph N/A   Mostly Cloudy
3:51 PM 68.0 °F - 33.1 °F 27% 29.91 in 10.0 mi NNE 12.7 mph - N/A   Partly Cloudy
4:51 PM 66.9 °F - 34.0 °F 30% 29.95 in 10.0 mi NNE 18.4 mph - N/A   Clear
5:51 PM 64.9 °F - 33.1 °F 31% 29.99 in 10.0 mi NNE 16.1 mph - N/A   Clear
6:51 PM 59.0 °F - 35.1 °F 41% 30.05 in 10.0 mi North 24.2 mph - N/A   Clear
7:51 PM 54.0 °F - 33.1 °F 45% 30.12 in 10.0 mi North 18.4 mph - N/A   Clear
8:51 PM 51.1 °F - 33.1 °F 50% 30.17 in 10.0 mi North 15.0 mph - N/A   Clear
9:51 PM 48.0 °F - 33.1 °F 56% 30.20 in 10.0 mi North 11.5 mph - N/A   Clear
10:51 PM 44.1 °F 40.1 °F 32.0 °F 63% 30.22 in 10.0 mi North 6.9 mph - N/A   Clear
11:51 PM 43.0 °F 40.3 °F 32.0 °F 65% 30.22 in 10.0 mi North 4.6 mph - N/A   Clear